[[{"header":{"parameterUnit":"m.s-1","parameterCategory":1,"la1":30.2991,"la2":30.254,"lo1":-89.0895,"lo2":-89.0444,"dy":0.0017,"dx":0.0017,"nx":28,"ny":28,"refTime":"2024-03-17T09:00:00:Z","depth":0,"parameterNumber":2,"parameterNumberName":"U-component_of_WINDS"},"data":[0,0,0,0,0,0,0,0,0,0,0,0,0,0,0,0,0,0,0,0,0,0,0,0,0,0,0,0,0,0,0,0,0,0,0,0,0,0,0,0,0,0,0,0,0,0,0,0,0,0,0,0,0,0,0,0,0,0,0.4642,0.4643,0,0.4692,0.4693,0.4693,0.4703,0.4703,0.4702,0.4702,0.4752,0.4754,0.4756,0,0,0,0,0,0,0,0,0,0,0,0,0,0.4553,0.4555,0.4642,0.4643,0.4643,0.4692,0.4693,0.4694,0.4703,0.4703,0.4702,0.4702,0.4752,0.4754,0.4756,0,0,0,0,0,0,0,0,0,0,0,0,0,0.4596,0.4555,0.4642,0.4654,0.4655,0.4692,0.4693,0.4694,0.4703,0.4703,0.4702,0.4701,0.4751,0.4754,0.4756,0.4784,0,0,0.4764,0.4765,0,0,0,0,0,0,0,0,0.4594,0.46,0.4651,0.4653,0.4655,0.4691,0.468,0.4724,0.4703,0.4685,0.4702,0.4701,0.4732,0.4736,0.4747,0.4786,0.4788,0.4764,0.4766,0.4767,0.4768,0,0,0,0,0,0,0,0.4591,0.4598,0.4662,0.4652,0.4654,0.4656,0.4662,0.4688,0.4711,0.4687,0.4687,0.4693,0.4733,0.4745,0.4748,0.4789,0.4764,0.4766,0.4768,0.4769,0.4854,0.4855,0,0,0,0,0,0,0.4586,0.4595,0.466,0.4663,0.4622,0.4659,0.4665,0.468,0.4711,0.4715,0.4694,0.4694,0.474,0.4745,0.475,0.4785,0.4767,0.4769,0.4771,0.4853,0.4854,0.4855,0,0,0,0,0,0,0.4584,0.4592,0.4658,0.4629,0.4638,0.4661,0.4678,0.4681,0.4693,0.4717,0.4721,0.4701,0.474,0.4746,0.4776,0.4787,0.477,0.4773,0.4852,0.4854,0.4855,0.4855,0,0,0,0,0,0,0.4581,0.4591,0.4602,0.463,0.464,0.4683,0.4678,0.4683,0.4697,0.4697,0.4725,0.4729,0.474,0.4772,0.4778,0.479,0.4775,0.4852,0.4853,0.4854,0.4854,0.4856,0.4857,0,0,0,0,0,0.4578,0.46,0.4602,0.461,0.4654,0.4684,0.4689,0.4703,0.4698,0.4709,0.4725,0.4728,0.4785,0.4775,0.4782,0.4795,0.4851,0.4853,0.4854,0.4853,0.4855,0.4857,0,0,0,0,0,0,0.4572,0.4604,0.4607,0.4638,0.4658,0.4685,0.47,0.4704,0.4726,0.4725,0.474,0.4746,0.4775,0.4788,0.4776,0.4823,0.4817,0.4821,0.4814,0.4816,0.4818,0.4814,0.4777,0,0,0,0,0,0.4575,0.4597,0.4623,0.4648,0.4658,0.4677,0.469,0.4699,0.472,0.4729,0.4746,0.4766,0.4789,0.4803,0.4825,0.4856,0.4862,0.4868,0.487,0.4871,0.4874,0.4891,0.4894,0.486,0.486,0.486,0,0,0.458,0.4599,0.4612,0.4647,0.4664,0.4686,0.4684,0.4707,0.4724,0.4732,0.4761,0.4774,0.4798,0.4828,0.4842,0.4839,0.4884,0.4873,0.4874,0.4876,0.4893,0.4896,0.4899,0.4861,0.4861,0.4861,0,0,0.46,0.4617,0.464,0.4657,0.4682,0.4695,0.4701,0.4727,0.4737,0.4766,0.4772,0.4792,0.483,0.4847,0.486,0.4887,0.4891,0.4894,0.4903,0.492,0.4922,0.4925,0.4934,0.4938,0.4897,0.4897,0.4897,0,0.4603,0.4637,0.4651,0.4675,0.469,0.4698,0.4721,0.4737,0.4768,0.4778,0.4775,0.4823,0.484,0.4874,0.4881,0.4891,0.4898,0.4891,0.4921,0.4923,0.4926,0.4935,0.4939,0.4897,0.4897,0.4897,0.4897,0,0.464,0.4663,0.4679,0.4709,0.4725,0.4748,0.4766,0.4781,0.4788,0.4801,0.483,0.4851,0.4877,0.4885,0.4892,0.4921,0.4918,0.4918,0.4912,0.4929,0.4938,0.4942,0.4897,0.4897,0.4897,0.4897,0,0,0.4658,0.4696,0.4701,0.4715,0.4744,0.4762,0.4785,0.4812,0.4824,0.4845,0.4865,0.4898,0.4898,0.4913,0.4922,0.4936,0.4956,0.4934,0.4935,0.4938,0.4989,0.4989,0.4993,0.4959,0.496,0.496,0.4987,0,0.4682,0.4725,0.4738,0.4773,0.4795,0.4804,0.4824,0.4844,0.4857,0.4877,0.4891,0.4913,0.4911,0.4921,0.4936,0.4951,0.4967,0.4949,0.4978,0.4978,0.4972,0.4998,0.4998,0.5022,0.499,0.4991,0.4992,0,0.4716,0.4738,0.4776,0.4802,0.4811,0.483,0.4855,0.4874,0.4896,0.4905,0.4922,0.4929,0.4954,0.4947,0.4981,0.4968,0.4981,0.499,0.4991,0.4995,0.4986,0.5002,0.503,0.5034,0.4997,0.4997,0.4996,0,0.4726,0.4765,0.4792,0.4804,0.4835,0.4848,0.4861,0.4883,0.4898,0.492,0.4929,0.4954,0.4967,0.4985,0.4999,0.4993,0.5032,0.5026,0.5039,0.5039,0.5047,0.5047,0.5078,0.5055,0.5055,0.5055,0.5055,0,0.4751,0.4774,0.4797,0.4814,0.484,0.4855,0.488,0.4894,0.4913,0.4933,0.4941,0.496,0.4977,0.4997,0.5008,0.5035,0.5041,0.5048,0.5051,0.5047,0.5046,0.5056,0.5054,0.5056,0.5056,0.5056,0.5055,0,0.4766,0.4783,0.4814,0.4841,0.4848,0.4866,0.4889,0.4905,0.4919,0.4943,0.495,0.4971,0.4995,0.5011,0.5042,0.5049,0.5078,0.5081,0.5071,0.5072,0.5085,0.5084,0.5123,0.5129,0.5103,0.5103,0.5103,0,0.4782,0.4799,0.4828,0.4842,0.4856,0.4878,0.4894,0.4909,0.4925,0.4952,0.4965,0.499,0.5011,0.505,0.5068,0.5091,0.5094,0.5107,0.5098,0.5094,0.5095,0.5093,0.5095,0.5108,0.5108,0.5108,0.5109,0,0.4807,0.4814,0.4836,0.4861,0.4879,0.49,0.492,0.4931,0.4949,0.4966,0.4992,0.5008,0.504,0.5065,0.5091,0.5104,0.511,0.5111,0.5116,0.5112,0.5106,0.511,0.5075,0.511,0.511,0.511,0.511,0.511,0.4823,0.4839,0.4862,0.4886,0.4903,0.4922,0.4939,0.4954,0.4976,0.5003,0.5011,0.5038,0.506,0.5095,0.5109,0.5129,0.5128,0.5134,0.5136,0.5137,0.5137,0.5103,0.5134,0.5134,0.5134,0.5134,0.5134,0,0.4848,0.4864,0.4886,0.4914,0.4933,0.4937,0.4959,0.4975,0.4998,0.5019,0.5039,0.5068,0.5093,0.5112,0.5137,0.515,0.5153,0.5156,0.5155,0.5158,0.5137,0.5131,0.5153,0.5153,0.5153,0.5153,0.5153,0.5153,0.4864,0.4892,0.4902,0.4938,0.4953,0.498,0.4992,0.501,0.5026,0.5058,0.5078,0.5091,0.5111,0.5138,0.516,0.5165,0.5174,0.5176,0.5182,0.5162,0.516,0.5158,0.5152,0.5178,0.5178,0.5201,0.5201,0.5201]},{"header":{"parameterUnit":"m.s-1","parameterCategory":1,"la1":30.2991,"la2":30.254,"lo1":-89.0895,"lo2":-89.0444,"dy":0.0017,"dx":0.0017,"nx":28,"ny":28,"refTime":"2024-03-17T09:00:00:Z","depth":0,"parameterNumber":3,"parameterNumberName":"V-component_of_WINDS"},"data":[0,0,0,0,0,0,0,0,0,0,0,0,0,0,0,0,0,0,0,0,0,0,0,0,0,0,0,0,0,0,0,0,0,0,0,0,0,0,0,0,0,0,0,0,0,0,0,0,0,0,0,0,0,0,0,0,0,0,0.0988,0.0988,0,0.0985,0.0985,0.0985,0.0958,0.0957,0.0956,0.0956,0.0955,0.0956,0.0956,0,0,0,0,0,0,0,0,0,0,0,0,0,0.0971,0.0971,0.0988,0.0988,0.0988,0.0985,0.0985,0.0985,0.0958,0.0957,0.0956,0.0956,0.0955,0.0956,0.0956,0,0,0,0,0,0,0,0,0,0,0,0,0,0.0974,0.0971,0.0988,0.0974,0.0973,0.0985,0.0985,0.0985,0.0958,0.0957,0.0956,0.0955,0.0955,0.0955,0.0956,0.0983,0,0,0.0959,0.096,0,0,0,0,0,0,0,0,0.0974,0.0975,0.0976,0.0975,0.0973,0.0971,0.0979,0.0985,0.0958,0.0964,0.0956,0.0955,0.0961,0.0962,0.0963,0.0983,0.0983,0.0959,0.096,0.096,0.0961,0,0,0,0,0,0,0,0.0974,0.0975,0.0987,0.0976,0.0975,0.0968,0.0968,0.098,0.0968,0.0963,0.0961,0.0961,0.096,0.0963,0.0963,0.0983,0.0959,0.096,0.0961,0.0961,0.1024,0.1025,0,0,0,0,0,0,0.0975,0.0975,0.0987,0.0987,0.0971,0.0969,0.0969,0.0973,0.0968,0.0966,0.0962,0.096,0.0961,0.0962,0.0963,0.0994,0.096,0.0961,0.0962,0.1023,0.1024,0.1025,0,0,0,0,0,0,0.0975,0.0977,0.0987,0.098,0.0981,0.0971,0.0976,0.0973,0.0975,0.0967,0.0965,0.0966,0.0961,0.0962,0.0978,0.0993,0.0962,0.0962,0.1021,0.1023,0.1025,0.1056,0,0,0,0,0,0,0.0975,0.0977,0.0986,0.0981,0.0982,0.1002,0.0977,0.0974,0.0977,0.0974,0.0971,0.0969,0.096,0.0977,0.0979,0.0994,0.0963,0.102,0.1022,0.1024,0.1053,0.1058,0.1062,0,0,0,0,0,0.0974,0.0996,0.0987,0.0989,0.0994,0.1003,0.1003,0.0992,0.0978,0.0988,0.0983,0.0969,0.0991,0.0979,0.0981,0.0997,0.1019,0.1022,0.1024,0.1051,0.1057,0.1062,0,0,0,0,0,0,0.1005,0.0995,0.0985,0.1005,0.1005,0.0998,0.101,0.0999,0.1003,0.1,0.0986,0.0985,0.1004,0.1002,0.0988,0.1022,0.1003,0.1006,0.1023,0.1028,0.1033,0.1033,0.0964,0,0,0,0,0,0.1013,0.1021,0.1013,0.1032,0.1032,0.1021,0.1025,0.1016,0.1015,0.1015,0.1011,0.1011,0.1018,0.1023,0.1029,0.1053,0.1052,0.1064,0.1069,0.1073,0.1076,0.1088,0.1094,0.1033,0.1033,0.1033,0,0,0.1032,0.1028,0.1034,0.1037,0.1036,0.1045,0.1021,0.1032,0.1038,0.1017,0.1032,0.1029,0.1028,0.1048,0.1057,0.1047,0.1092,0.1076,0.1079,0.108,0.1091,0.1097,0.1102,0.1035,0.1035,0.1034,0,0,0.1071,0.1069,0.1084,0.1083,0.1081,0.1073,0.1077,0.1072,0.1069,0.1083,0.1067,0.1075,0.1087,0.1087,0.1089,0.1127,0.1115,0.1129,0.1154,0.1166,0.1171,0.1175,0.1189,0.1194,0.1132,0.1132,0.1133,0,0.1095,0.1108,0.1094,0.1105,0.1107,0.1087,0.1102,0.1102,0.1103,0.1105,0.1093,0.1108,0.1106,0.1126,0.1135,0.1137,0.1141,0.113,0.1171,0.1175,0.1179,0.1192,0.1197,0.1134,0.1134,0.1134,0.1134,0,0.1137,0.1146,0.1159,0.1159,0.1162,0.1176,0.1164,0.1169,0.1159,0.1153,0.1168,0.1165,0.117,0.1174,0.1165,0.1193,0.1187,0.1173,0.1154,0.1187,0.1199,0.1203,0.1137,0.1136,0.1136,0.1135,0,0,0.1196,0.1187,0.1192,0.1192,0.1188,0.1195,0.1207,0.1211,0.1216,0.1217,0.1227,0.1237,0.1225,0.1227,0.1218,0.1228,0.1259,0.1214,0.1213,0.1223,0.1289,0.1299,0.1305,0.125,0.1251,0.1252,0.1289,0,0.1234,0.1255,0.1242,0.1264,0.1272,0.1253,0.1264,0.1263,0.1257,0.1263,0.1257,0.1265,0.1248,0.1249,0.1259,0.1253,0.1272,0.125,0.126,0.1261,0.1262,0.1312,0.1323,0.1358,0.1294,0.1294,0.1295,0,0.1281,0.1283,0.1306,0.13,0.1303,0.1313,0.1315,0.1321,0.132,0.1315,0.1316,0.1304,0.1317,0.1297,0.1313,0.1299,0.1302,0.13,0.1301,0.1302,0.1281,0.1314,0.1369,0.1374,0.1302,0.1302,0.1301,0,0.1322,0.1331,0.1345,0.1346,0.1339,0.1346,0.1344,0.1341,0.1344,0.1346,0.1348,0.1352,0.1354,0.1357,0.1347,0.1333,0.1365,0.1344,0.1362,0.1362,0.137,0.137,0.1426,0.1371,0.1371,0.1371,0.1371,0,0.1366,0.1381,0.1364,0.1373,0.1389,0.1374,0.1391,0.1387,0.1384,0.1392,0.1376,0.1384,0.1369,0.1376,0.1368,0.1383,0.1384,0.1381,0.1379,0.1383,0.1383,0.1385,0.1383,0.1373,0.1372,0.1372,0.1372,0,0.1415,0.1404,0.1419,0.1411,0.1409,0.1421,0.1415,0.1423,0.1416,0.1427,0.1428,0.1418,0.1425,0.1414,0.142,0.1415,0.1436,0.1429,0.1436,0.1435,0.1453,0.1452,0.1513,0.1521,0.146,0.1461,0.1462,0,0.1444,0.1455,0.1448,0.1452,0.145,0.1457,0.146,0.1445,0.1449,0.1447,0.1456,0.1462,0.1465,0.1478,0.1471,0.1475,0.1469,0.149,0.147,0.1474,0.147,0.147,0.1471,0.1495,0.1496,0.1496,0.1497,0,0.1497,0.1491,0.1495,0.1497,0.1501,0.1502,0.1502,0.1506,0.1491,0.1496,0.1503,0.1506,0.1512,0.1517,0.152,0.1518,0.1505,0.1503,0.1508,0.1512,0.1516,0.1515,0.1448,0.1502,0.1502,0.1501,0.1501,0.1501,0.1537,0.1546,0.1542,0.1547,0.1545,0.1546,0.1553,0.1547,0.1552,0.1555,0.1546,0.1555,0.1553,0.1555,0.1554,0.1561,0.1551,0.1558,0.1559,0.1561,0.1564,0.1514,0.1561,0.1561,0.1561,0.1561,0.1561,0,0.1589,0.1586,0.159,0.1591,0.1595,0.1581,0.1581,0.1585,0.1593,0.1591,0.1595,0.1603,0.1608,0.1601,0.1605,0.1612,0.1606,0.1614,0.1614,0.1613,0.1572,0.1568,0.1618,0.1618,0.1618,0.1618,0.1618,0.1618,0.1617,0.1631,0.1624,0.1637,0.1634,0.1641,0.1642,0.1643,0.1641,0.165,0.1654,0.1649,0.1646,0.1649,0.1654,0.1652,0.1654,0.1664,0.166,0.1622,0.1616,0.1611,0.1607,0.1664,0.1664,0.17,0.1701,0.1701]}]]